Weather History for Auburn, IN

Change the Weather History Date:

Friday, April 25, 2014

  Actual Average (KFWA) Record (KFWA)
Temperature  
Mean Temperature 51 °F 54 °F  
Max Temperature 60 °F 65 °F 86 °F (1990)
Min Temperature 42 °F 42 °F 24 °F (1967)
Degree Days  
Heating Degree Days 14 12  
Month to date heating degree days 404  
Since 1 July heating degree days 5828  
Cooling Degree Days 0 0  
Month to date cooling degree days 0  
Year to date cooling degree days 0  
Growing Degree Days 1 (Base 50)    
Moisture  
Dew Point 37 °F    
Average Humidity 64    
Maximum Humidity 93    
Minimum Humidity 36    
Precipitation  
Precipitation 0.18 in 0.11 in 1.87 in (1904)
Month to date precipitation 2.98  
Year to date precipitation 9.99  
Snow  
Snow 0.00 in 0.00 in T in (1976)
Month to date snowfall 1.0  
Since 1 July snowfall 33.5  
Snow Depth -    
Sea Level Pressure  
Sea Level Pressure 29.75 in    
Wind  
Wind Speed 7 mph (NNW)    
Max Wind Speed 22 mph    
Max Gust Speed 29 mph    
Visibility 9 miles    
Events Rain    
T = Trace of Precipitation, MM = Missing Value Source: NWS Daily Summary

Daily Weather History Graph

Daily Weather History Graph

Search for Another Location

Airport:

Trip Planner

Search our weather history database for the weather conditions in past years. The results will help you decide how hot, cold, wet, or windy it might be!

Date:

Astronomy

Apr. 25, 2014 Rise Set
Actual Time 6:45 AM EDT 8:31 PM EDT
Civil Twilight 6:16 AM EDT 9:00 PM EDT
Nautical Twilight 5:40 AM EDT 9:36 PM EDT
Astronomical Twilight 5:02 AM EDT 10:15 PM EDT
Moon 4:36 AM EDT (4/25) 4:50 PM EDT (4/25)
Length of Visible Light 14h 44m
Length of Day
13h 45m
Waning Crescent, 15% of the Moon is Illuminated
Apr 25
Waning Crescent
Apr 29
New
May 6
First Quarter
May 14
Full
May 21
Last Quarter

Hourly Weather History & Observations

Time (EDT) Temp. Windchill Dew Point Humidity Pressure Visibility Wind Dir Wind Speed Gust Speed Precip Events Conditions
12:15 AM 44.6 °F 40.2 °F 30.2 °F 57% 29.79 in 10.0 mi East 8.1 mph - N/A   Clear
12:35 AM 44.6 °F 40.2 °F 30.2 °F 57% 29.78 in 10.0 mi East 8.1 mph - N/A   Clear
1:15 AM 44.6 °F 40.2 °F 30.2 °F 57% 29.77 in 10.0 mi East 8.1 mph - N/A   Clear
1:35 AM 44.6 °F 40.7 °F 30.2 °F 57% 29.76 in 10.0 mi East 6.9 mph - N/A   Clear
1:55 AM 44.6 °F 40.7 °F 30.2 °F 57% 29.74 in 10.0 mi East 6.9 mph - N/A   Scattered Clouds
2:15 AM 44.6 °F 41.4 °F 30.2 °F 57% 29.73 in 10.0 mi East 5.8 mph - N/A   Scattered Clouds
2:35 AM 44.6 °F 41.4 °F 30.2 °F 57% 29.72 in 10.0 mi East 5.8 mph - N/A   Mostly Cloudy
2:55 AM 44.6 °F 41.4 °F 30.2 °F 57% 29.71 in 10.0 mi East 5.8 mph - N/A   Mostly Cloudy
3:15 AM 44.6 °F 39.7 °F 30.2 °F 57% 29.69 in 10.0 mi ENE 9.2 mph - N/A   Overcast
3:35 AM 44.6 °F 40.2 °F 30.2 °F 57% 29.68 in 10.0 mi ENE 8.1 mph - N/A   Overcast
3:55 AM 44.6 °F 41.4 °F 30.2 °F 57% 29.68 in 10.0 mi ENE 5.8 mph - N/A   Overcast
4:15 AM 44.6 °F 41.4 °F 30.2 °F 57% 29.69 in 10.0 mi North 5.8 mph - N/A   Mostly Cloudy
4:35 AM 44.6 °F 40.7 °F 32.0 °F 61% 29.68 in 10.0 mi ENE 6.9 mph - N/A   Clear
4:55 AM 44.6 °F 40.7 °F 30.2 °F 57% 29.67 in 10.0 mi ENE 6.9 mph - N/A   Scattered Clouds
5:15 AM 44.6 °F 42.2 °F 30.2 °F 57% 29.66 in 10.0 mi ENE 4.6 mph - N/A   Mostly Cloudy
5:35 AM 44.6 °F - 32.0 °F 61% 29.66 in 10.0 mi Calm Calm - N/A Rain Light Rain
5:55 AM 44.6 °F - 32.0 °F 61% 29.66 in 10.0 mi Calm Calm - N/A Rain Rain
6:15 AM 44.6 °F 43.1 °F 35.6 °F 71% 29.65 in 10.0 mi East 3.5 mph - N/A Rain Light Rain
6:35 AM 42.8 °F 41.1 °F 37.4 °F 81% 29.65 in 10.0 mi East 3.5 mph - 0.01 in Rain Light Rain
6:55 AM 42.8 °F 39.3 °F 37.4 °F 81% 29.65 in 7.0 mi East 5.8 mph - 0.04 in Rain Rain
7:15 AM 42.8 °F 40.1 °F 37.4 °F 81% 29.66 in 10.0 mi East 4.6 mph - 0.01 in Rain Rain
7:35 AM 42.8 °F 41.1 °F 37.4 °F 81% 29.66 in 7.0 mi NE 3.5 mph - 0.02 in Rain Light Rain
7:55 AM 42.8 °F 41.1 °F 37.4 °F 81% 29.67 in 5.0 mi North 3.5 mph - 0.05 in Rain Heavy Rain
8:15 AM 42.8 °F 41.1 °F 39.2 °F 87% 29.67 in 4.0 mi NNE 3.5 mph - 0.04 in Rain Rain
8:35 AM 42.8 °F 40.1 °F 39.2 °F 87% 29.67 in 5.0 mi NNE 4.6 mph - 0.06 in Rain Rain
8:55 AM 42.8 °F - 39.2 °F 87% 29.67 in 5.0 mi Calm Calm - 0.07 in Rain Rain
9:15 AM 42.8 °F 41.1 °F 41.0 °F 93% 29.67 in 5.0 mi North 3.5 mph - 0.01 in Rain Rain
9:35 AM 42.8 °F 41.1 °F 41.0 °F 93% 29.67 in 5.0 mi North 3.5 mph - 0.01 in   Drizzle
9:55 AM 44.6 °F - 41.0 °F 87% 29.66 in 5.0 mi Calm Calm - 0.01 in   Light Drizzle
10:15 AM 44.6 °F 41.4 °F 42.8 °F 93% 29.68 in 5.0 mi WNW 5.8 mph - N/A Rain Light Rain
10:35 AM 44.6 °F 41.4 °F 42.8 °F 93% 29.68 in 5.0 mi West 5.8 mph - 0.01 in   Light Drizzle
10:55 AM 44.6 °F 42.2 °F 42.8 °F 93% 29.69 in 7.0 mi NW 4.6 mph - 0.01 in   Overcast
11:15 AM 46.4 °F 41.1 °F 42.8 °F 87% 29.70 in 7.0 mi WNW 11.5 mph - N/A   Overcast
11:35 AM 46.4 °F 41.1 °F 44.6 °F 93% 29.71 in 7.0 mi WNW 11.5 mph - N/A   Overcast
11:55 AM 50.0 °F - 44.6 °F 82% 29.71 in 7.0 mi WNW 12.7 mph 19.6 mph N/A   Overcast
12:15 PM 50.0 °F - 44.6 °F 82% 29.73 in 5.0 mi NW 13.8 mph 20.7 mph N/A   Haze
12:35 PM 50.0 °F - 44.6 °F 82% 29.73 in 5.0 mi WNW 10.4 mph 18.4 mph N/A   Haze
12:55 PM 50.0 °F - 44.6 °F 82% 29.74 in 5.0 mi WNW 15.0 mph 18.4 mph N/A   Haze
1:15 PM 50.0 °F - 42.8 °F 76% 29.74 in 5.0 mi NW 10.4 mph 19.6 mph N/A   Haze
1:55 PM 50.0 °F - 42.8 °F 76% 29.77 in 5.0 mi NW 12.7 mph 20.7 mph N/A   Haze
2:15 PM 51.8 °F - 44.6 °F 76% 29.77 in 7.0 mi NW 17.3 mph 24.2 mph N/A   Overcast
2:35 PM 53.6 °F - 42.8 °F 67% 29.78 in 10.0 mi WNW 15.0 mph 25.3 mph N/A   Scattered Clouds
2:55 PM 55.4 °F - 41.0 °F 58% 29.79 in 10.0 mi NW 21.9 mph 28.8 mph N/A   Clear
3:15 PM 55.4 °F - 41.0 °F 58% 29.79 in 10.0 mi WNW 20.7 mph 25.3 mph N/A   Clear
3:35 PM 57.2 °F - 41.0 °F 55% 29.80 in 10.0 mi West 20.7 mph 25.3 mph N/A   Clear
3:55 PM 59.0 °F - 37.4 °F 45% 29.80 in 10.0 mi WNW 18.4 mph 27.6 mph N/A   Clear
4:15 PM 59.0 °F - 37.4 °F 45% 29.80 in 10.0 mi WNW 15.0 mph 25.3 mph N/A   Clear
4:35 PM 59.0 °F - 37.4 °F 45% 29.81 in 10.0 mi WNW 17.3 mph 24.2 mph N/A   Clear
4:55 PM 60.8 °F - 39.2 °F 45% 29.81 in 10.0 mi WNW 13.8 mph 19.6 mph N/A   Clear
5:15 PM 59.0 °F - 35.6 °F 42% 29.82 in 10.0 mi WNW 16.1 mph 25.3 mph N/A   Clear
5:35 PM 60.8 °F - 35.6 °F 39% 29.82 in 10.0 mi NW 10.4 mph 20.7 mph N/A   Clear
5:55 PM 59.0 °F - 35.6 °F 42% 29.82 in 10.0 mi WNW 13.8 mph 24.2 mph N/A   Clear
6:15 PM 60.8 °F - 33.8 °F 36% 29.82 in 10.0 mi WNW 17.3 mph 25.3 mph N/A   Clear
6:35 PM 60.8 °F - 35.6 °F 39% 29.83 in 10.0 mi WNW 13.8 mph 18.4 mph N/A   Clear
6:55 PM 60.8 °F - 35.6 °F 39% 29.83 in 10.0 mi WNW 10.4 mph - N/A   Clear
7:15 PM 60.8 °F - 35.6 °F 39% 29.83 in 10.0 mi NW 6.9 mph - N/A   Clear
7:35 PM 59.0 °F - 35.6 °F 42% 29.83 in 10.0 mi West 5.8 mph - N/A   Clear
7:55 PM 59.0 °F - 37.4 °F 45% 29.83 in 10.0 mi West 4.6 mph - N/A   Clear
8:15 PM 57.2 °F - 35.6 °F 44% 29.83 in 10.0 mi Calm Calm - N/A   Clear
8:35 PM 55.4 °F - 35.6 °F 47% 29.83 in 10.0 mi Calm Calm - N/A   Clear
8:55 PM 53.6 °F - 37.4 °F 54% 29.83 in 10.0 mi Calm Calm - N/A   Clear
9:15 PM 51.8 °F - 37.4 °F 58% 29.83 in 10.0 mi Calm Calm - N/A   Clear
9:35 PM 51.8 °F - 41.0 °F 67% 29.84 in 10.0 mi Calm Calm - N/A   Clear
9:55 PM 50.0 °F - 37.4 °F 62% 29.85 in 10.0 mi Calm Calm - N/A   Mostly Cloudy
10:15 PM 51.8 °F - 39.2 °F 62% 29.85 in 10.0 mi Calm Calm - N/A   Overcast
10:35 PM 51.8 °F - 39.2 °F 62% 29.85 in 10.0 mi Calm Calm - N/A   Overcast
10:55 PM 50.0 °F - 39.2 °F 66% 29.85 in 10.0 mi Calm Calm - N/A   Overcast
11:15 PM 51.8 °F - 39.2 °F 62% 29.85 in 10.0 mi Calm Calm - N/A   Overcast
11:35 PM 50.0 °F - 41.0 °F 71% 29.84 in 10.0 mi Calm Calm - N/A   Overcast